TimeCST,TemperatureF,Dew PointF,Humidity,Sea Level PressureIn,VisibilityMPH,Wind Direction,Wind SpeedMPH,Gust SpeedMPH,PrecipitationIn,Events,Conditions,WindDirDegrees,DateUTC
12:53 AM,50.0,30.0,46,30.25,10.0,South,6.9,-,N/A,,Clear,190,2012-11-29 06:53:00
1:53 AM,48.9,30.9,50,30.24,10.0,South,10.4,-,N/A,,Scattered Clouds,170,2012-11-29 07:53:00
2:53 AM,48.0,32.0,54,30.23,10.0,South,9.2,-,N/A,,Partly Cloudy,170,2012-11-29 08:53:00
3:53 AM,46.0,32.0,58,30.22,10.0,South,4.6,-,N/A,,Partly Cloudy,190,2012-11-29 09:53:00
4:53 AM,46.9,32.0,56,30.22,10.0,South,6.9,-,N/A,,Clear,180,2012-11-29 10:53:00
5:53 AM,46.9,33.1,59,30.23,10.0,South,6.9,-,N/A,,Clear,180,2012-11-29 11:53:00
6:53 AM,46.9,34.0,61,30.23,10.0,South,9.2,-,N/A,,Clear,170,2012-11-29 12:53:00
7:53 AM,48.0,34.0,58,30.24,10.0,South,8.1,-,N/A,,Clear,190,2012-11-29 13:53:00
8:53 AM,51.1,35.1,54,30.24,10.0,South,10.4,17.3,N/A,,Partly Cloudy,180,2012-11-29 14:53:00
9:53 AM,55.0,36.0,49,30.23,10.0,South,13.8,20.7,N/A,,Partly Cloudy,190,2012-11-29 15:53:00
10:53 AM,59.0,37.9,46,30.21,10.0,South,13.8,24.2,N/A,,Clear,170,2012-11-29 16:53:00
11:53 AM,62.1,39.0,43,30.18,10.0,South,10.4,20.7,N/A,,Scattered Clouds,170,2012-11-29 17:53:00
12:53 PM,63.0,37.9,40,30.16,10.0,SSW,13.8,23.0,N/A,,Scattered Clouds,200,2012-11-29 18:53:00
1:53 PM,64.0,37.0,37,30.13,10.0,South,10.4,24.2,N/A,,Clear,190,2012-11-29 19:53:00
2:53 PM,64.9,35.1,33,30.11,10.0,South,12.7,20.7,N/A,,Clear,190,2012-11-29 20:53:00
3:53 PM,64.9,35.1,33,30.08,10.0,South,10.4,20.7,N/A,,Mostly Cloudy,170,2012-11-29 21:53:00
4:53 PM,63.0,34.0,34,30.07,10.0,SSE,8.1,-,N/A,,Scattered Clouds,150,2012-11-29 22:53:00
5:53 PM,60.1,32.0,35,30.07,10.0,South,8.1,-,N/A,,Partly Cloudy,170,2012-11-29 23:53:00
6:53 PM,57.9,30.9,36,30.08,10.0,South,8.1,-,N/A,,Partly Cloudy,170,2012-11-30 00:53:00
7:53 PM,59.0,30.9,35,30.09,10.0,South,10.4,19.6,N/A,,Clear,180,2012-11-30 01:53:00
8:53 PM,57.9,32.0,37,30.09,10.0,South,9.2,18.4,N/A,,Mostly Cloudy,170,2012-11-30 02:53:00
9:53 PM,57.0,34.0,42,30.11,10.0,South,9.2,-,N/A,,Partly Cloudy,180,2012-11-30 03:53:00
10:53 PM,57.0,36.0,45,30.11,10.0,South,10.4,18.4,N/A,,Partly Cloudy,180,2012-11-30 04:53:00
11:53 PM,55.9,37.9,51,30.12,10.0,South,9.2,-,N/A,,Clear,180,2012-11-30 05:53:00